Regional Weather Roundup
Issued by NWS

Home | Current Version | Previous Version | Graphics & Text | Print | Product List | Glossary On
Versions: 1 2 3 4 5 6 7 8 9 10 11 12 13 14 15 16 17 18 19 20 21 22 23 24 25 26 27 28 29 30 31 32 33 34 35 36 37 38 39 40 41 42 43 44 45 46 47 48 49 50
000
ASUS43 KMKX 240221
RWRWI

WISCONSIN REGIONAL WEATHER ROUNDUP
NATIONAL WEATHER SERVICE MILWAUKEE/SULLIVAN WI
900 PM CDT TUE MAY 23 2017

NOTE: "FAIR" INDICATES FEW OR NO CLOUDS BELOW 12,000 FEET WITH NO
SIGNIFICANT WEATHER AND/OR OBSTRUCTIONS TO VISIBILITY.

WIZ001-002-006>008-014>016-023>028-240300-
NORTHWEST WISCONSIN

CITY           SKY/WX    TMP DP  RH WIND       PRES   REMARKS
SUPERIOR ARPT  NOT AVBL
ASHLAND        CLOUDY    46  43  89 N9        29.89S
HAYWARD        CLOUDY    48  43  82 N15       29.86S
SIREN          CLOUDY    53  44  72 NE9       29.85S
CUMBERLAND     CLOUDY    50  41  71 N12G17    29.83R
RICE LAKE      CLOUDY    53  43  68 N10       29.83S
CHETEK         CLOUDY    53  44  72 N8G16     29.82S
LADYSMITH      CLOUDY    52  45  76 N9        29.83S
EAU CLAIRE     CLOUDY    55  46  71 NE8       29.77S
MENOMONIE      CLOUDY    55  47  72 N12G17    29.79S
NEW RICHMOND   CLOUDY    54  45  70 NE13      29.82R
OSCEOLA        MOCLDY    55  43  65 N9        29.85R
$$

WIZ003>005-009-010-017-018-240300-
NORTH CENTRAL WISCONSIN

CITY           SKY/WX    TMP DP  RH WIND       PRES   REMARKS
MANITOWISH WTR CLOUDY    48  46  91 N6        29.83S
ARBOR VITAE    CLOUDY    52  47  83 N7        29.81S
WOODRUFF       CLOUDY    52  47  83 N7        29.81S
RHINELANDER    CLOUDY    52  44  74 N8        29.81R
EAGLE RIVER    PTCLDY    49  43  78 N8        29.81S
LAND O LAKES   CLOUDY    50  44  79 NE12      29.84S
PHILLIPS       CLOUDY    51  44  78 NE7       29.81R
TOMAHAWK       CLOUDY    51  43  74 N6        29.80S
MEDFORD        CLOUDY    52  44  73 N10       29.77S
MERRILL        CLOUDY    54  46  74 NE3       29.78F
$$

WIZ029-030-035-036-043>047-240300-
CENTRAL WISCONSIN

CITY           SKY/WX    TMP DP  RH WIND       PRES   REMARKS
WAUSAU         LGT RAIN  53  46  77 CALM      29.76S
MOSINEE        LGT RAIN  52  48  87 E5        29.79R
MARSHFIELD     CLOUDY    53  45  74 E8        29.76S
STEVENS POINT  CLOUDY    49  45  84 E6        29.78S
WAUPACA        RAIN      51  49  92 N3        29.77F
WAUTOMA        LGT RAIN  49  47  93 NE8       29.76S
WISC RAPIDS    CLOUDY    50  46  86 E13       29.78R
CAMP DOUGLAS   DRIZZLE   52  50  93 NE9       29.75R
$$

WIZ011>013-019>022-031-037>040-048>050-240300-
NORTHEAST WISCONSIN

CITY           SKY/WX    TMP DP  RH WIND       PRES   REMARKS
ANTIGO         LGT RAIN  50  45  82 E3        29.79R
SHAWANO        DRIZZLE   51  49  91 CALM      29.79S
OCONTO         CLOUDY    51  49  93 CALM      29.78R
STURGEON BAY   RAIN      50  48  93 NE9       29.79S
GREEN BAY      LGT RAIN  51  50  96 NE10      29.76F
MANITOWOC      LGT RAIN  49  46  90 N7        29.76F
APPLETON       LGT RAIN  48  48 100 E12       29.75S
CLINTONVILLE   LGT RAIN  48  46  93 NE5       29.78S
OSHKOSH        LGT RAIN  50  48  93 NE12      29.74S
$$

WIZ032>034-041-042-053>061-240300-
SOUTHWEST WISCONSIN

CITY           SKY/WX    TMP DP  RH WIND       PRES   REMARKS
LA CROSSE      LGT RAIN  55  52  89 N5        29.74R
SPARTA         LGT RAIN  51  50  98 NE8       29.75S
VIROQUA        CLOUDY    52  50  95 MISG      29.73S
BOSCOBEL       LGT RAIN  54  52  93 N3        29.72R
PRAIRIE DU CHI CLOUDY    56  51  84 W5        29.71S
PLATTEVILLE    CLOUDY    55  53  94 N3        29.70S
$$

WIZ056-057-062-063-064-067-068-240300-
SOUTH CENTRAL WISCONSIN

CITY           SKY/WX    TMP DP  RH WIND       PRES   REMARKS
REEDSBURG      RAIN      51  51 100 NE10      29.73S
BARABOO/DELLS  DRIZZLE   51  49  93 NE6       29.74R
LONE ROCK      CLOUDY    52  49  89 E3        29.71R
MINERAL POINT  PTCLDY    54  54 100 N5        29.70S
MADISON        CLOUDY    54  53  97 E8        29.70S
MIDDLETON      CLOUDY    57  56  99 NE3       29.70S
WATERTOWN      CLOUDY    52  52 100 NE3       29.70F
MONROE         CLEAR     54  52  94 SE3       29.69F
JANESVILLE     PTCLDY    55  54  94 CALM      29.69F
$$

WIZ051-052-058>065-066-070>072-240300-
SOUTHEAST WISCONSIN

CITY           SKY/WX    TMP DP  RH WIND       PRES   REMARKS
MILWAUKEE      LGT RAIN  49  49 100 N5        29.72F
WAUKESHA       LGT RAIN  48  48 100 NE8       29.73S
MILWAUKEE/TIMM LGT RAIN  48  45  87 NE3       29.74S
RACINE         LGT RAIN  54  52  93 E3        29.73F
KENOSHA        LGT RAIN  54  52  93 E5        29.71S
FOND DU LAC    LGT RAIN  50  46  86 NE8       29.74S
SHEBOYGAN      LGT RAIN  47  47 100 NE12      29.74F
WEST BEND      LGT RAIN  48  48 100 NE6       29.73S
JUNEAU         CLOUDY    51  50  96 N9        29.73F
$$

LSZ147-162-240300-
LAKE SUPERIOR

STATION/POSITION TIME  TEMP    WIND        PRES    WAVE
                       AIR SEA DIR/SP/G            HT/PER
                 (UTC) (F)     (DEG/KT/KT) (MB)    (FT/S)
W MID LAKE BUOY  0150   41 37  360/  6/  6 1012.8F   0
DEVILS ISLAND    0200   42     350/  9/  9 1013.2R
PORT WING        0140   41      20/  9/ 10 1012.5S
SAXON HARBOR     0140   42      10/  4/  5 1011.9F
$$

LMZ867-665-643>646-240300-
LAKE MICHIGAN

STATION/POSITION TIME  TEMP    WIND        PRES    WAVE
                       AIR SEA DIR/SP/G            HT/PER
                 (UTC) (F)     (DEG/KT/KT) (MB)    (FT/S)
CHAMBERS ISLAND  0130   50     360/ 12/ 14 1008.1S
N MID LAKE BUOY  0150   43 39   40/  8/  8 1009.1S   0
NORTHPORT PIER   0140   48     340/ 13/ 15 1008.1F
KEWAUNEE LAKESHO 0154   50     350/  2/  5 1007.8F
SHEBOYGAN LAKESH 0200   45      10/ 12/ 13 1007.4F
PORT WASHINGTON  0140   47      50/  6/  7 1007.8F
ATWATER BUOY     0109   46      30/ 12/ 16 1006.9R
MILWAUKEE LAKESH 0200   47     350/  9/ 11   N/A
S MID LAKE BUOY  0150   49 45   CALM  /  2 1006.6F   0
KENOSHA   LAKESH 0200   54        CALM     1006.4
$$

TC  - TEMPERATURE IN CELSIUS
VSB - VISIBILITY IN STATUTE MILES
WCI - WIND CHILL INDEX
HX  - HEAT INDEX





USA.gov is the U.S. government's official web portal to all federal, state and local government web resources and services.